Flag for U.S.A. Weather past 2 weeks in Little Rock, Arkansas, U.S.A.

Now
79 °F

Mostly cloudy.


Feels Like: 82 °F
Forecast: 73 / 82 °F
Wind: 7 mph from North

Location: Adams Field

Current Time: Aug 29, 2014 at 10:00:26 PM

Latest Report: Aug 29, 2014 at 8:53 PM


Visibility: 10 mi

Pressure: 29.95 "Hg

Humidity: 74%

Dew point: 70 °F

Location of Little RockLocation

Historic Weather in Little Rock — Graph

°F

Little Rock temperature yesterday

Maximum temperature yesterday: 92 °F (at 2:53 PM)
Minimum temperature yesterday: 73 °F (at 4:53 AM)
Average temperature yesterday: 82 °F

Past Weeks' High & Low Weather Summary

 TemperatureHumidityPressure
High96 °F (Aug 23, 1:53 PM)90% (Aug 20, 1:53 AM)30.10 "Hg (Aug 20, 1:53 AM)
Low68 °F (Aug 16, 5:53 AM)36% (Aug 28, 4:53 PM)29.83 "Hg (Aug 19, 5:53 PM)
Average83 °F69%29.97 "Hg
* Reported Aug 14 8:53 PM — Aug 29 8:53 PM, Little Rock, Weather by CustomWeather, © 2014

Note: Actual official high and low records may vary slightly from our data, if they occured in-between our weather recording intervals... More about our weather records

Advertising

Little Rock weather history for previous 24 hours

 ConditionsComfort  
Time TempWeatherWind HumidityBarometerVisibility
8:53 PM
Aug 29
79 °FMostly cloudy.7 mph74%29.95 "Hg10 mi
7:53 PM79 °FBroken clouds.7 mph77%29.93 "Hg10 mi
6:53 PM82 °FBroken clouds.7 mph65%29.91 "Hg10 mi
5:53 PM82 °FPartly sunny.7 mph67%29.89 "Hg10 mi
4:53 PM88 °FBroken clouds.13 mph59%29.90 "Hg10 mi
3:53 PM90 °FBroken clouds.10 mph52%29.88 "Hg10 mi
1:53 PM88 °FLight rain. Partly sunny.14 mph55%29.92 "Hg10 mi
12:53 PM89 °FScattered clouds.7 mph53%29.95 "Hg10 mi
11:53 AM85 °FScattered clouds.5 mph63%29.97 "Hg10 mi
10:53 AM84 °FScattered clouds.5 mph63%29.96 "Hg10 mi
9:53 AM79 °FPartly sunny.6 mph74%29.96 "Hg10 mi
8:53 AM75 °FOvercast.5 mph82%29.97 "Hg10 mi
7:53 AM74 °FPartly sunny.5 mph85%29.96 "Hg10 mi
6:53 AM73 °FPassing clouds.No wind84%29.96 "Hg10 mi
5:53 AM73 °FPassing clouds.3 mph81%29.93 "Hg10 mi
4:53 AM73 °FPassing clouds.No wind81%29.93 "Hg10 mi
3:53 AM73 °FPassing clouds.No wind81%29.93 "Hg10 mi
2:53 AM75 °FPassing clouds.No wind74%29.93 "Hg10 mi
1:53 AM75 °FPassing clouds.No wind74%29.94 "Hg10 mi
12:53 AM75 °FClear.5 mph76%29.95 "Hg10 mi
11:53 PM
Aug 28
76 °FPassing clouds.5 mph74%29.95 "Hg10 mi
10:53 PM79 °FClear.5 mph65%29.95 "Hg10 mi
Weather by CustomWeather, © 2014

See weather overviewHow to use our weather pages